Regional Weather Roundup
Issued by NWS

Home | Current Version | Previous Version | Graphics & Text | Print | Product List | Glossary On
Versions: 1 2 3 4 5 6 7 8 9 10 11 12 13 14 15 16 17 18 19 20 21 22 23 24 25 26 27 28 29 30 31 32 33 34 35 36 37 38 39 40 41 42 43 44 45 46 47 48 49 50
711
ASUS43 KIND 271300
RWRIN

WEATHER ROUNDUP FOR INDIANA
NATIONAL WEATHER SERVICE INDIANAPOLIS IN
900 AM EDT SAT MAY 27 2017

NOTE: "FAIR" INDICATES FEW OR NO CLOUDS BELOW 12,000 FEET WITH NO
SIGNIFICANT WEATHER AND/OR OBSTRUCTIONS TO VISIBILITY.

* - STATION DOES NOT REPORT WEATHER SUCH AS PRECIPITATION OR FOG.

+ - STATION NOT QUALITY CONTROLLED BY THE NATIONAL WEATHER SERVICE.
    USE DATA WITH CAUTION...ESPECIALLY DEWPOINT AND RELATIVE
    HUMIDITY OBSERVATIONS.

INZ001>003-010>013-019-020-271400-
NORTHWEST INDIANA

CITY           SKY/WX    TMP DP  RH WIND       PRES   REMARKS
GARY /AIRPORT/ CLOUDY    57  54  88 N6        29.93R
MICHIGAN CITY+ CLOUDY    57  57 100 NW6       29.93R FOG
MONTICELLO +   CLOUDY    61  60  95 CALM      29.89R FOG
RENSSELAER +   CLOUDY    61  59  94 N5        29.91R FOG

$$

LMZ046-743>745-271400-
SOUTHERN LAKE MICHIGAN

STATION/POSITION TIME  TEMP    WIND        PRES    WAVE
                       AIR SEA DIR/SP/G            HT
                 (UTC) (F)     (DEG/KT/KT) (MB)    (FT)
BURNS HARBOR     1240   53      20/  3/  5 1014.2R
MICHIGAN CITY    1230   53     360/  6/  7   N/A
5NW MICH CITY    1250   52 53  350/  8/ 10   N/A     1

$$

INZ004-005-014>016-021>024-271400-
NORTH CENTRAL INDIANA

CITY           SKY/WX    TMP DP  RH WIND       PRES   REMARKS
ELKHART        PTSUNNY   63  59  88 E5        29.88R
GOSHEN         CLOUDY    62  57  83 E6        29.88R
SOUTH BEND     CLOUDY    61  59  93 VRB5      29.90R

$$

INZ006>009-017-018-025>027-271400-
NORTHEAST INDIANA

CITY           SKY/WX    TMP DP  RH WIND       PRES   REMARKS
FORT WAYNE     CLOUDY    62  60  93 NE7       29.88R FOG

$$

INZ028-029-035-036-043>045-051>053-271400-
WEST CENTRAL INDIANA

CITY           SKY/WX    TMP DP  RH WIND       PRES   REMARKS
CRAWFORDSVL +  CLOUDY   -34 -34 100 NW3       29.89R
GREENCASTLE +  PTSUNNY   68  63  83 NW3       29.88S
LAFAYETTE      CLOUDY    60  60 100 NW6       29.89R FOG
TERRE HAUTE    CLOUDY    68  63  84 N7        29.88R

$$

INZ030>032-037>040-046>048-054>057-064-065-271400-
CENTRAL INDIANA

CITY           SKY/WX    TMP DP  RH WIND       PRES   REMARKS
ANDERSON       CLOUDY   N/A N/A N/A SW6       29.89
COLUMBUS       CLOUDY    70  64  83 W9        29.88R
GREENWOOD *+   CLOUDY    71  66  85 NW3       29.87F
INDIANAPOLIS   MOSUNNY   71  65  81 NW9       29.86F
-EAGLE CREEK   CLOUDY    68  63  84 W8        29.87R
KOKOMO +       FOG       63  62  97 N5        29.88R VSB 1
SHELBYVILLE    CLOUDY    72  65  78 W7        29.86R

$$

INZ033-034-041-042-049-050-058-059-271400-
EAST CENTRAL INDIANA

CITY           SKY/WX    TMP DP  RH WIND       PRES   REMARKS
MUNCIE         CLOUDY    69  65  86 W6        29.87R
RICHMOND +     CLOUDY    66  64  94 SW7       29.89R

$$

INZ060-061-067>069-081>083-085>088-271400-
SOUTHWEST INDIANA

CITY           SKY/WX    TMP DP  RH WIND       PRES   REMARKS
EVANSVILLE     CLOUDY    72  68  87 SW3       29.88F FOG
HUNTINGBURG *+ CLOUDY    71  68  90 S7        29.90S

$$

INZ062-063-066-070>080-084-089>092-271400-
SOUTH CENTRAL AND SOUTHEAST INDIANA

CITY           SKY/WX    TMP DP  RH WIND       PRES   REMARKS
BLOOMINGTON    CLOUDY    71  64  78 CALM      29.87S
MADISON *+     CLOUDY    72  66  83 SW6       29.92R
SEYMOUR +      CLOUDY    73  68  83 W7        29.88R

$$





USA.gov is the U.S. government's official web portal to all federal, state and local government web resources and services.